Regional Weather Roundup
Issued by NWS

Home | Current Version | Previous Version | Graphics & Text | Print | Product List | Glossary On
Versions: 1 2 3 4 5 6 7 8 9 10 11 12 13 14 15 16 17 18 19 20 21 22 23 24 25 26 27
000
ASUS45 KSLC 241610
RWRUT

UTAH REGIONAL WEATHER ROUNDUP
NATIONAL WEATHER SERVICE SALT LAKE CITY UT
1000 AM MDT TUE APR 24 2018

UTZ001>011-023>025-241700-

NORTHERN UTAH

CITY           SKY/WX    TMP DP  RH WIND       PRES   REMARKS
BRIGHAM CITY   SUNNY     52  29  40 E9        30.33S
HILL AFB       NOT AVBL
LOGAN          SUNNY     46  34  62 NE5       30.35F
OGDEN          SUNNY     51  28  41 NE3       30.31R
SALT LAKE CITY MOSUNNY   54  35  48 W8        30.30S
TOOELE VALLEY  SUNNY     50  37  62 N6        30.32S
WENDOVER       SUNNY     54  26  34 SE7       30.34S
HEBER CITY       N/A     45  27  49 N7        30.33R
WEST JORDAN    SUNNY     51  32  46 NE9       30.31S

$$

UTZ011>015-024>027-241700-

CENTRAL/NORTHEAST UTAH

CITY           SKY/WX    TMP DP  RH WIND       PRES   REMARKS
PROVO AIRPORT  SUNNY     52  31  44 VRB3      30.31R
MOAB/CANYONLAN SUNNY     62  20  19 S6        30.16R
DELTA          MOSUNNY   52  28  40 NW7       30.28S
PRICE          SUNNY     56  22  26 NE14      30.23S
RICHFIELD      MOSUNNY   54  23  30 N7        30.28
ROOSEVELT      SUNNY     48  27  43 E5        30.36S
VERNAL         SUNNY     49  25  39 NE18      30.34F

$$

UTZ013>016-019>022-027-241700-

SOUTHERN UTAH

CITY           SKY/WX    TMP DP  RH WIND       PRES   REMARKS
BRYCE CANYON   SUNNY     52  26  36 N7        30.27F
CEDAR CITY     SUNNY     52  28  39 N6        30.24S
MILFORD        SUNNY     53  30  41 MISG      30.27R
ST GEORGE      SUNNY     69  28  21 S6        30.10S
HANKSVILLE     SUNNY     63  18  17 CALM      30.20S
BLANDING         N/A     65  24  21 SW6       30.25S

$$

REGIONAL REPORTS     COLORADO/ARIZONA

CITY           SKY/WX    TMP DP  RH WIND       PRES   REMARKS
CRAIG, CO      CLOUDY    39  29  67 W5        30.35S
GRAND JUNCTION MOSUNNY   60  32  34 E10G17    30.18R
RIFLE, CO      SUNNY     51  32  48 NW14      30.24F
MONTROSE, CO   MOSUNNY   58  35  42 W6        30.20F
CORTEZ, CO     SUNNY     62  25  24 CALM      30.17S
COLORADO CITY    N/A     64  28  25 CALM      30.18S
PAGE, AZ       SUNNY     68  28  22 N6        30.11S
GRAND CANYON   SUNNY     64  19  17 VRB7      30.23S
KINGMAN, AZ    SUNNY     77  26  15 CALM      30.06S
FLAGSTAFF, AZ  MOSUNNY   64  19  17 VRB3      30.24S

$$

REGIONAL REPORTS    NEVADA/IDAHO/WYOMING

CITY           SKY/WX    TMP DP  RH WIND       PRES   REMARKS
LAS VEGAS, NV  MOSUNNY   77  24  14 E6        30.04R
ELY, NY        SUNNY     47  21  35 N14       30.30F
ELKO, NV       SUNNY     51  27  39 NE13      30.30S
POCATELLO, ID  SUNNY     45  29  53 NE22      30.39S
BURLEY, ID     SUNNY     46  26  45 E17       30.38S
EVANSTON, WY   MOSUNNY   38  26  62 NE12G22   30.37S WCI  30
ROCK SPRINGS,  CLOUDY    36  21  54 E23G30    30.42S WCI  24
KEMMERER, WY   CLOUDY    34  23  64 E17G23    30.41S WCI  23

$$




USA.gov is the U.S. government's official web portal to all federal, state and local government web resources and services.